SCP
1 1 1 1 1 1 1 1 1 1 1 1 1 1 1 1 1 1 1 1 1 2 2 2 2 2 1 1 1 1 1 1 1 1 1 1 1 1 1 1 1 1 1
1 1 1 1 1 1 1 1 1 1 1 1 1 1 1 1 1 1 1 1 1 2 2 2 2 2 2 1 1 1 1 1 1 1 1 1 1 1 1 1 1 1 1
1 1 1 1 1 1 1 1 1 1 1 1 1 1 1 1 1 1 2 1 1 2 2 2 2 2 2 2 1 1 1 1 1 2 2 1 1 1 1 1 1 1 1
1 1 1 1 1 1 1 1 1 1 1 1 1 1 1 1 1 2 2 2 2 2 2 2 2 2 2 2 2 2 2 2 2 2 2 1 1 1 1 1 1 1 1
2 2 2 1 1 1 1 1 1 2 1 1 1 1 1 2 2 2 2 2 2 2 2 2 2 2 2 2 2 2 2 2 2 2 2 2 1 1 1 1 1 1 1
2 2 2 2 1 1 1 1 1 2 2 1 1 1 1 2 2 3 3 2 2 1 2 2 2 2 2 3 3 3 2 2 2 2 2 2 2 1 1 1 1 1 1
2 2 2 2 2 1 1 1 2 2 2 2 2 2 2 2 3 4 4 3 2 1 1 2 2 3 3 3 3 3 2 2 2 3 3 2 2 2 2 2 1 1 1
2 2 2 2 2 2 2 2 2 2 2 2 2 3 3 3 3 4 4 4 2 2 2 4 5 5 5 4 3 2 2 2 2 2 3 3 2 2 2 2 2 2 2
2 2 2 2 2 2 3 3 2 2 2 2 2 3 3 3 3 4 4 4 3 2 4 7 8 7 5 4 2 2 1 1 1 2 2 3 3 2 2 2 2 2 2
2 2 2 2 2 2 3 3 3 3 3 2 2 2 3 3 3 4 4 4 3 3 6 11 12 9 5 3 2 1 1 1 1 2 2 2 3 3 2 2 1 1 1
3 3 2 3 3 3 3 3 3 3 3 3 3 3 3 2 2 3 3 3 3 3 8 13 14 9 5 2 1 1 1 1 1 1 2 2 2 3 2 2 2 1 1
4 4 4 4 4 3 3 3 3 3 3 3 3 3 3 2 2 2 3 2 2 4 8 12 13 8 4 2 1 1 1 1 1 1 1 1 2 2 2 2 2 1 2
5 5 6 6 5 5 4 3 3 3 3 3 3 3 3 3 3 3 2 2 2 3 5 8 9 6 3 2 2 1 1 1 1 1 1 1 1 1 1 1 1 1 1
5 6 7 7 7 5 4 4 4 4 4 3 3 3 3 3 3 3 2 2 2 2 3 5 5 4 3 3 3 2 2 2 1 1 1 1 0 0 1 1 1 1 1
5 6 8 9 8 6 5 4 4 4 4 4 4 3 3 3 3 2 2 2 2 2 3 4 5 5 4 4 4 3 3 3 2 1 1 1 0 0 0 0 1 1 1
6 7 9 10 9 7 6 5 4 4 4 5 5 4 4 3 3 3 2 2 3 3 3 5 6 6 5 4 4 4 4 3 2 2 1 1 0 0 0 0 0 0 0
8 8 9 10 10 8 7 6 5 5 4 5 5 5 5 4 4 4 3 3 3 3 4 6 7 8 7 5 4 4 4 4 3 2 1 1 0 0 0 0 0 0 0
10 9 9 9 9 8 8 8 7 6 5 5 4 5 5 5 5 5 4 4 4 4 5 7 8 9 9 7 6 5 4 4 4 2 1 1 0 0 0 0 0 0 0
11 11 10 9 8 8 8 8 9 8 7 5 4 4 5 5 6 5 5 5 4 4 5 7 8 9 9 8 7 6 5 5 4 2 1 0 0 0 0 0 0 0 0
11 12 11 10 8 7 7 8 9 9 9 7 5 5 5 5 6 5 5 5 5 5 5 6 7 8 8 8 7 6 6 5 3 2 1 1 1 0 0 0 0 0 0
12 12 12 11 9 7 7 7 8 9 9 7 5 5 5 5 5 5 5 5 6 6 6 6 6 7 7 7 6 5 5 4 3 2 2 2 1 1 1 0 0 0 0
12 12 12 11 9 8 6 6 6 7 7 6 5 4 4 4 4 4 4 4 4 5 6 6 6 6 5 6 5 4 3 3 3 3 3 2 2 1 1 1 0 0 0
12 12 11 10 9 8 6 4 5 6 6 5 5 5 5 5 5 5 5 4 4 4 4 5 6 6 6 6 4 3 3 3 3 3 3 2 2 2 1 1 1 0 0
12 12 10 9 8 7 5 3 4 5 5 5 6 6 6 6 5 5 5 5 6 5 4 4 4 5 5 4 3 2 2 2 2 2 3 2 2 2 2 1 1 0 0
13 11 8 8 8 6 5 3 3 4 6 6 6 6 6 6 5 4 5 6 7 6 4 3 3 3 3 2 2 2 2 2 2 2 2 3 3 3 2 2 1 0 0
12 9 7 7 8 7 5 3 3 5 6 7 7 6 5 5 4 4 4 6 7 6 4 3 2 2 1 1 1 1 2 2 2 2 3 3 3 3 3 2 1 1 0
Wind_Speed
2 2 1 1 1 1 2 2 2 1 1 2 2 2 2 1 1 4 5 10 11 10 10 9 9 9 9 9 8 9 9 8 8 8 8 8 8 7 7 6 6 6 7
1 1 1 1 1 1 1 1 2 1 2 2 2 2 1 1 2 3 5 7 11 11 10 10 10 10 10 10 10 9 10 9 9 8 8 8 8 8 8 8 7 7 6
2 1 1 1 1 1 1 1 2 1 2 2 2 2 2 2 2 3 4 5 6 10 11 11 11 11 11 10 10 10 10 10 9 9 8 8 8 8 8 8 7 7 7
2 1 2 2 2 2 1 2 2 2 1 1 1 2 2 2 3 3 4 4 4 5 9 12 11 11 11 11 11 10 10 10 9 10 10 10 9 9 9 8 8 7 8
3 3 2 1 3 2 2 2 1 1 1 1 2 3 2 2 3 4 3 4 4 5 5 9 13 12 12 12 11 10 10 10 10 10 11 11 10 10 9 9 9 9 8
3 2 2 3 3 1 1 1 0 1 2 2 4 2 2 3 3 2 3 3 3 4 5 6 7 9 12 12 11 10 11 10 10 10 11 11 10 10 10 10 10 9 9
3 2 2 1 2 1 1 1 0 2 2 2 1 2 2 4 3 2 3 3 3 3 4 5 5 4 5 11 10 9 10 10 10 10 10 10 10 10 10 10 10 9 9
3 3 3 3 2 2 1 2 2 2 2 2 1 1 1 2 2 3 2 3 2 2 3 5 5 4 4 4 7 10 9 8 9 10 9 10 9 9 9 9 9 9 9
3 2 2 2 1 2 2 3 2 2 2 2 1 1 1 1 2 2 2 2 2 2 2 3 4 4 5 4 5 8 9 8 8 8 8 8 8 8 9 9 9 9 9
3 3 3 3 2 2 2 3 2 2 2 2 2 2 2 1 1 1 2 2 3 3 3 2 2 3 4 4 5 8 10 9 8 8 7 7 7 7 7 8 8 8 8
4 4 3 2 2 2 2 2 1 2 2 2 2 2 2 2 3 2 2 2 2 2 3 3 2 2 4 4 4 7 10 9 8 7 6 5 5 5 6 6 7 7 8
4 4 4 3 3 2 2 2 2 3 2 3 3 3 2 2 2 2 2 3 2 2 3 2 3 3 3 3 5 9 10 9 7 6 5 5 5 4 5 5 6 6 6
4 5 5 4 3 3 3 3 3 3 3 3 3 3 3 3 2 2 2 2 2 2 2 2 3 2 3 3 4 9 8 8 8 7 6 5 4 4 4 4 5 5 5
3 3 4 4 4 4 4 2 3 3 3 3 5 4 3 4 3 2 2 1 2 2 2 2 1 1 1 3 5 8 5 7 6 6 6 5 4 4 3 3 3 3 3
4 3 4 4 4 4 3 2 2 3 2 3 3 3 3 3 3 2 2 2 2 2 3 2 1 0 1 2 5 4 4 7 7 7 6 6 5 5 4 3 3 2 2
3 3 4 4 4 4 4 3 3 3 3 3 3 3 3 3 2 2 2 2 2 2 3 1 1 1 0 1 4 2 3 7 8 8 7 7 6 5 5 4 4 3 3
4 3 3 4 4 4 4 3 4 4 4 4 4 4 3 3 3 2 2 2 2 1 2 2 1 1 1 1 2 2 3 4 5 8 8 7 7 6 6 5 5 4 4
5 5 5 4 5 5 4 5 6 5 4 4 4 4 3 3 3 3 2 3 2 2 2 3 2 2 2 2 2 3 3 4 3 7 9 9 8 8 7 6 5 5 4
6 6 6 6 5 5 5 5 6 5 5 4 4 4 3 3 3 3 2 3 3 3 2 2 3 2 1 1 1 2 2 1 3 5 8 8 8 8 8 7 6 5 4
6 6 6 6 6 6 5 5 5 5 5 4 4 4 3 3 3 3 4 3 3 3 3 3 2 2 1 1 1 1 2 1 1 2 2 4 5 7 7 7 7 6 5
7 6 6 6 6 6 6 6 5 6 5 4 4 3 3 3 3 3 3 1 2 2 2 2 2 2 1 1 1 2 2 1 1 1 1 2 3 3 4 6 6 7 7
5 5 6 6 6 7 6 7 6 5 4 4 4 3 3 3 3 4 3 2 2 2 2 2 2 2 2 1 1 2 1 1 2 1 1 2 2 3 3 3 6 7 7
4 4 5 5 6 6 7 6 7 5 5 4 4 3 4 3 3 2 3 4 3 4 4 3 3 2 2 1 1 2 2 2 3 2 1 2 2 2 2 3 6 8 7
3 4 4 5 4 6 8 7 6 6 5 5 5 5 4 3 3 2 2 2 2 2 3 3 2 2 2 1 2 3 3 3 2 2 1 2 1 1 1 2 7 8 8
3 3 4 5 5 5 7 7 6 5 5 5 5 5 4 4 4 2 2 3 2 2 2 2 2 2 2 3 2 2 2 2 2 2 1 1 2 2 2 2 5 9 8
3 3 3 4 5 4 6 7 7 5 5 4 4 4 5 5 5 4 3 3 3 3 2 2 2 3 4 5 6 4 2 2 2 2 2 1 1 1 2 2 2 3 4
Wind_Direction
137 140 144 180 189 182 175 205 227 227 246 235 242 216 222 231 158 141 152 173 177 183 189 194 200 205 208 208 211 212 211 209 210 213 217 221 225 228 231 235 239 240 239
117 121 163 276 270 224 183 212 222 210 243 240 243 232 220 208 181 160 155 181 189 191 194 199 204 209 212 213 214 215 214 215 215 216 218 221 225 228 231 237 241 241 242
143 151 213 230 245 248 212 233 243 224 240 242 232 240 227 228 199 184 176 181 189 199 200 202 207 210 214 218 219 218 217 218 217 215 215 218 223 227 230 235 239 241 240
176 214 223 213 229 234 217 223 236 241 253 262 261 261 230 223 213 210 200 188 183 188 200 207 209 210 214 219 222 222 220 216 215 216 216 219 223 224 225 228 234 237 238
191 218 225 212 245 239 229 248 174 271 281 276 259 236 232 220 214 221 209 205 192 185 182 201 209 211 214 219 221 222 219 218 215 216 219 221 224 224 225 228 233 236 237
201 223 220 219 248 256 263 291 332 281 257 257 271 272 249 234 221 213 220 219 208 199 188 188 196 212 216 217 217 219 220 219 215 218 223 224 224 225 226 229 232 235 237
203 221 249 235 252 242 248 257 266 270 264 257 278 284 252 241 225 203 219 219 214 206 193 183 188 195 196 209 214 218 220 221 217 219 220 222 225 226 228 229 232 236 241
206 218 211 230 223 216 223 256 242 267 276 261 250 283 291 282 272 226 213 216 211 207 208 199 185 187 190 180 197 207 214 219 222 221 221 221 226 228 230 231 233 237 242
208 245 209 242 237 212 197 229 233 243 266 277 254 225 265 284 294 264 245 223 211 223 233 211 192 186 189 183 181 193 202 210 218 224 227 228 230 231 232 234 236 238 240
220 221 220 230 244 258 188 233 182 244 256 275 269 233 228 213 255 289 275 248 222 220 222 234 199 182 182 173 172 175 189 200 210 220 227 232 235 234 237 239 241 240 240
212 221 212 220 224 254 221 245 214 248 256 271 285 271 248 232 239 241 270 277 261 230 205 209 202 190 187 179 171 173 182 193 201 210 218 228 236 241 243 247 246 247 247
207 212 208 206 216 237 234 230 238 246 251 273 290 291 276 255 253 243 256 267 267 261 220 196 200 196 195 171 171 161 170 184 192 201 210 222 232 242 246 252 251 252 253
210 206 204 184 201 219 231 231 235 247 246 258 267 273 280 273 267 263 264 270 276 272 249 213 206 192 194 150 151 161 174 183 190 195 201 212 221 233 245 253 255 255 257
230 203 184 180 197 220 235 221 242 242 233 246 262 264 277 280 280 272 257 273 294 293 281 263 236 188 171 147 155 169 170 183 190 194 198 203 209 218 231 242 251 256 262
222 202 186 189 198 213 234 238 238 255 242 237 263 264 257 280 280 284 278 255 251 275 277 270 263 211 155 123 150 180 163 181 189 195 200 205 206 209 213 217 227 244 255
234 207 200 197 201 214 223 231 248 243 244 247 247 263 265 275 293 290 288 286 261 254 271 287 283 259 251 195 179 190 180 179 195 197 199 202 201 202 204 207 212 225 236
226 222 214 215 212 214 219 228 247 247 238 246 256 251 249 255 274 290 291 293 282 274 273 289 300 312 304 234 185 203 197 187 187 195 196 196 197 199 202 205 211 219 231
223 222 218 220 224 218 213 223 240 246 235 237 247 260 266 265 254 270 287 286 288 275 248 263 281 285 262 229 204 228 233 205 177 188 194 197 200 203 204 207 210 215 225
223 225 218 219 225 224 217 220 228 240 241 239 238 241 249 263 267 264 267 272 279 283 271 257 259 256 260 238 218 253 260 237 203 186 189 196 201 204 206 206 208 210 213
223 228 225 223 222 219 223 226 226 229 240 242 242 241 238 240 244 249 252 251 263 282 278 272 260 256 251 248 204 243 262 249 234 211 185 185 193 200 204 202 203 204 207
229 228 229 229 226 222 226 222 225 226 229 238 243 242 239 227 226 233 257 255 267 270 276 274 272 275 274 282 272 272 262 258 255 236 179 197 189 199 201 195 197 201 205
235 229 226 226 228 234 224 212 212 233 231 229 234 234 233 214 201 199 216 234 240 252 271 276 278 271 276 293 297 286 295 293 272 233 220 250 211 208 194 190 198 200 204
243 237 232 225 224 223 227 219 216 224 229 225 224 222 243 229 199 207 211 213 229 245 245 255 266 268 270 267 281 289 286 279 269 256 232 254 231 233 209 195 195 200 204
248 244 242 235 229 224 216 217 217 226 232 227 221 218 218 215 229 211 232 235 231 249 254 241 253 266 266 278 266 262 260 261 263 270 252 258 261 259 252 201 199 206 211
241 248 243 240 233 218 210 207 205 229 230 228 225 224 214 193 179 193 223 245 247 246 285 265 244 238 238 256 264 275 267 263 274 264 256 250 265 273 256 234 214 213 217
248 257 257 246 239 224 200 201 203 231 234 231 224 217 216 198 183 194 215 239 245 251 250 268 263 249 239 237 235 228 240 254 268 270 258 258 274 281 272 237 203 206 223